Greenville Junction, ME

1:28 AM EDT on August 25, 2016 (GMT -0400)
Greenville

Weather History for KGNR - March, 2013

Change the Weather History Date:

Saturday, March 16, 2013

  Actual Average (KMLT) Record (KMLT)
Temperature  
Mean Temperature 20 °F 28 °F  
Max Temperature 25 °F 38 °F 59 °F (2010)
Min Temperature 12 °F 18 °F -11 °F (1993)
Degree Days  
Heating Degree Days 46 37  
Month to date heating degree days 631  
Since 1 July heating degree days 6683  
Cooling Degree Days 0 0  
Month to date cooling degree days 0  
Year to date cooling degree days 0  
Moisture  
Dew Point 7 °F    
Average Humidity 64    
Maximum Humidity 88    
Minimum Humidity 40    
Precipitation  
Precipitation 0.04 in 0.10 in 1.61 in (1937)
Month to date precipitation 1.27  
Year to date precipitation 6.38  
Sea Level Pressure  
Sea Level Pressure 29.73 in    
Wind  
Wind Speed 8 mph (NW)    
Max Wind Speed 12 mph    
Max Gust Speed 21 mph    
T = Trace of Precipitation, MM = Missing Value Source: NWS Daily Summary

Daily Weather History Graph

Daily Weather History Graph

Search for Another Location

Airport or City:

Trip Planner

Search our weather history database for the weather conditions in past years. The results will help you decide how hot, cold, wet, or windy it might be!

Date:

Astronomy

Mar. 16, 2013 Rise Set
Actual Time 6:48 AM EDT 6:45 PM EDT
Civil Twilight 6:19 AM EDT 7:15 PM EDT
Nautical Twilight 5:44 AM EDT 7:49 PM EDT
Astronomical Twilight 5:09 AM EDT 8:25 PM EDT
Moon 9:01 AM EDT (3/16) No Moon Set
Length of Visible Light 12h 56m
Length of Day
11h 57m
Waxing Crescent, 23% of the Moon is Illuminated
Mar 16
Waxing Crescent
Mar 19
First Quarter
Mar 27
Full
Apr 3
Last Quarter
Apr 10
New

Hourly Weather History & Observations

Time (EDT) Temp. Windchill Dew Point Humidity Pressure Visibility Wind Dir Wind Speed Gust Speed Precip Events Conditions
12:56 AM 19.0 °F 8.2 °F 10.9 °F 71% 29.60 in - North 9.2 mph - N/A   Unknown
1:56 AM 17.1 °F 4.3 °F 12.9 °F 84% 29.62 in - NW 11.5 mph 17.3 mph 0.01 in   Unknown
2:56 AM 16.0 °F 2.9 °F 12.9 °F 88% 29.63 in - NW 11.5 mph - N/A   Unknown
3:56 AM 16.0 °F 5.3 °F 12.9 °F 88% 29.65 in - NW 8.1 mph - 0.01 in   Unknown
4:56 AM 16.0 °F 7.4 °F 12.9 °F 88% 29.66 in - NW 5.8 mph - 0.01 in   Unknown
5:56 AM 16.0 °F 3.6 °F 12.9 °F 88% 29.68 in - NW 10.4 mph - 0.01 in   Unknown
6:56 AM 16.0 °F 7.4 °F 12.0 °F 84% 29.71 in - Variable 5.8 mph - N/A   Unknown
7:56 AM 15.1 °F 2.5 °F 12.0 °F 88% 29.71 in - NW 10.4 mph - N/A   Unknown
8:56 AM 16.0 °F 7.4 °F 10.9 °F 81% 29.73 in - Variable 5.8 mph - N/A   Unknown
9:56 AM 19.0 °F 10.0 °F 8.1 °F 62% 29.73 in - Variable 6.9 mph 17.3 mph N/A   Unknown
10:56 AM 21.0 °F 12.4 °F 8.1 °F 57% 29.73 in - Variable 6.9 mph - N/A   Unknown
11:56 AM 21.9 °F 12.5 °F 5.0 °F 48% 29.72 in - NW 8.1 mph - N/A   Unknown
12:56 PM 23.0 °F 15.8 °F 3.9 °F 44% 29.72 in - Variable 5.8 mph 17.3 mph N/A   Unknown
1:56 PM 24.1 °F 16.0 °F 5.0 °F 44% 29.72 in - Variable 6.9 mph 20.7 mph N/A   Unknown
2:56 PM 24.1 °F 18.2 °F 3.0 °F 40% 29.73 in - Variable 4.6 mph 17.3 mph N/A   Unknown
3:56 PM 24.1 °F 19.7 °F 3.0 °F 40% 29.73 in - Variable 3.5 mph - N/A   Unknown
4:56 PM 23.0 °F 15.8 °F 3.0 °F 42% 29.74 in - Variable 5.8 mph - N/A   Unknown
5:56 PM 21.0 °F 12.4 °F 1.9 °F 44% 29.75 in - Variable 6.9 mph - N/A   Unknown
6:56 PM 19.0 °F 13.9 °F 3.0 °F 50% 29.76 in - Variable 3.5 mph - N/A   Unknown
7:56 PM 17.1 °F 11.7 °F 3.9 °F 56% 29.80 in - Variable 3.5 mph - N/A   Unknown
8:56 PM 17.1 °F 8.7 °F 3.9 °F 56% 29.81 in - Variable 5.8 mph - N/A   Unknown
9:56 PM 16.0 °F 6.3 °F 3.9 °F 59% 29.82 in - NW 6.9 mph - N/A   Unknown
10:56 PM 15.1 °F 6.4 °F 3.9 °F 61% 29.83 in - Variable 5.8 mph 16.1 mph N/A   Unknown
11:56 PM 12.9 °F 3.8 °F 3.0 °F 65% 29.84 in - NW 5.8 mph - N/A   Unknown